AO-07 1 07530U 74089B 23060.93473583 -.00000019 00000-0 17270-3 0 9997 2 07530 101.9391 46.9222 0011917 269.0798 148.7526 12.53661696209735 UO-11 1 14781U 84021B 23061.84234140 .00002432 00000-0 29538-3 0 9995 2 14781 97.6466 42.9910 0008012 179.7870 180.3350 14.84387998 99364 AO-16 1 20439U 90005D 23061.83899689 .00000371 00000-0 15232-3 0 9991 2 20439 98.8761 49.3857 0011264 150.0078 285.8348 14.33027135729926 LO-19 1 20442U 90005G 23061.84707962 .00000389 00000-0 15828-3 0 9998 2 20442 98.8320 36.1615 0012592 127.1892 233.0443 14.33180728730179 HUBBLE 1 20580U 90037B 23060.93877550 .00005285 00000-0 28826-3 0 9998 2 20580 28.4687 261.0912 0002295 310.9243 188.2454 15.12139138605202 MET-2/21 1 22782U 93055A 23061.84643990 .00000027 00000-0 10831-4 0 9994 2 22782 82.5525 169.1660 0021747 345.5553 132.2785 13.83873809490012 AO-27 1 22825U 93061C 23060.82597432 .00000219 00000-0 10215-3 0 9993 2 22825 98.8573 101.9085 0008833 28.2809 331.8850 14.30254093534940 IO-26 1 22826U 93061D 23061.06608479 .00000253 00000-0 11444-3 0 9998 2 22826 98.8517 102.0190 0009098 13.8261 346.3168 14.30609003535493 FO-29 1 24278U 96046B 23060.90063898 .00000056 00000-0 94536-4 0 9994 2 24278 98.5202 54.1173 0349820 335.4035 23.0760 13.53134728310426 NOAA-15 1 25338U 98030A 23061.80721374 .00000309 00000-0 14718-3 0 9991 2 25338 98.6193 92.6215 0009304 262.9616 97.0506 14.26254862290099 GO-32 1 25397U 98043D 23060.84591527 .00000203 00000-0 10860-3 0 9995 2 25397 98.8551 17.4585 0002391 86.0576 274.0875 14.23828517280050 ISS 1 25544U 98067A 23061.23196975 .00026950 00000-0 48563-3 0 9995 2 25544 51.6403 138.3257 0006133 41.7532 55.1306 15.49569302385207 NO-44 1 26931U 01043C 23060.83822104 .00000307 00000-0 14846-3 0 9994 2 26931 67.0503 113.9944 0006462 283.5177 76.5204 14.30836347118223 SO-50 1 27607U 02058C 23061.80432085 .00002704 00000-0 38573-3 0 9991 2 27607 64.5540 230.9846 0077246 245.4649 113.8388 14.76823999 86723 CO-55 1 27844U 03031E 23061.77450288 .00000670 00000-0 31879-3 0 9999 2 27844 98.6808 70.5835 0010984 76.0699 284.1699 14.22651179 20631 CO-57 1 27848U 03031J 23060.76452753 .00000550 00000-0 26753-3 0 9992 2 27848 98.6848 70.0427 0010891 91.8790 268.3635 14.22178239 20236 RS-22 1 27939U 03042A 23061.73221616 .00002847 00000-0 50516-3 0 9990 2 27939 98.2229 208.0259 0013609 112.1889 248.0762 14.67964395 38924 NOAA-18 1 28654U 05018A 23061.13571480 .00000319 00000-0 19550-3 0 9996 2 28654 98.9192 136.0144 0013493 325.9544 34.0761 14.12874108916458 CO-58 1 28895U 05043F 23061.82816123 .00002687 00000-0 50811-3 0 9998 2 28895 98.1346 194.8467 0017032 50.4787 309.7919 14.65111798925465 CO-65 1 32785U 08021C 23061.81777658 .00005099 00000-0 51847-3 0 9998 2 32785 97.6931 30.2074 0014428 95.5201 264.7663 14.91131921805031 AAUSAT2 1 32788U 08021F 23060.87388591 .00012995 00000-0 10199-2 0 9997 2 32788 97.5561 42.9300 0007879 12.7478 347.3944 15.01031349806994 DO-64 1 32789U 08021G 23061.62245196 .00045358 00000-0 18343-2 0 9993 2 32789 97.3178 84.6747 0010198 131.5055 228.7060 15.24528725811186 CO-66 1 32791U 08021J 23061.65394392 .00008904 00000-0 81841-3 0 9992 2 32791 97.6438 35.3180 0014111 54.5441 305.7095 14.94948270805811 RS-30 1 32953U 08025A 23061.72705939 .00000024 00000-0 10000-3 0 9991 2 32953 82.5052 23.3013 0020620 57.5559 302.7512 12.43119496670423 PRISM 1 33493U 09002B 23061.82621280 .00014474 00000-0 10594-2 0 9995 2 33493 98.2516 69.0795 0018362 47.1562 313.1201 15.03566042767751 NOAA-19 1 33591U 09005A 23061.80434682 .00000269 00000-0 17007-3 0 9997 2 33591 99.1159 105.9606 0014011 178.5685 181.5529 14.12698185724921 SRMSAT 1 37841U 11058D 23060.87812808 .00000523 00000-0 14235-3 0 9999 2 37841 19.9713 138.7944 0011729 293.2535 224.5346 14.10841545587638 HRBE 1 37855U 11061F 23061.61881312 .00033277 00000-0 12143-2 0 9994 2 37855 101.7069 324.2081 0134166 5.5386 354.7281 15.19948383620809 RS-40 1 38735U 12041C 23061.79209353 .00000009 00000-0 -80348-5 0 9992 2 38735 82.4735 104.4464 0017790 164.9286 195.2323 12.42591418480600 ZACUBE-1 1 39417U 13066B 23061.80219809 .00005526 00000-0 65452-3 0 9992 2 39417 97.6722 27.3526 0053963 277.6504 81.8584 14.83911971501410 Delfi-N3xt 1 39428U 13066N 23060.84153856 .00004284 00000-0 63687-3 0 9994 2 39428 97.8304 349.6119 0113315 173.0747 187.2059 14.71166459496347 GOMX-1 1 39430U 13066Q 23061.66145581 .00004130 00000-0 72967-3 0 9995 2 39430 97.7916 318.9785 0145969 310.5056 48.3537 14.61185474493989 LO-74 1 39440U 13066AA 23061.81740055 .00006738 00000-0 88623-3 0 9992 2 39440 97.7606 14.1830 0077456 14.5051 345.8359 14.78397010499637 AO-73 1 39444U 13066AE 23061.13755563 .00006119 00000-0 70029-3 0 9995 2 39444 97.6592 29.1833 0052276 265.7132 93.8109 14.85340031500338 SPROUT 1 39770U 14029E 23061.81821325 .00024315 00000-0 21238-2 0 9997 2 39770 97.9545 186.5112 0008281 301.9068 58.1232 14.96759557476216 DTUSAT-2 1 40030U 14033W 23061.08157479 .00005831 00000-0 58402-3 0 9990 2 40030 97.9584 0.4060 0009436 289.9467 70.0735 14.91746332472531 EO-80 1 40032U 14033Y 23061.39281627 .00005967 00000-0 59750-3 0 9996 2 40032 97.9589 0.7372 0009115 290.7309 69.2932 14.91748542472563 HODOYOSHI-1 1 40299U 14070B 23061.81962581 .00013337 00000-0 44979-3 0 9991 2 40299 97.2093 127.3768 0009862 300.3672 166.7178 15.30788563462527 FIREBIRD FU3 1 40377U 15003B 23061.09901703 .00068614 00000-0 12451-2 0 9991 2 40377 99.0766 350.6834 0067593 221.7903 137.8169 15.46796018447965 FIREBIRD FU4 1 40378U 15003C 23061.75372782 .00071168 00000-0 12818-2 0 9999 2 40378 99.0777 351.7904 0067595 218.9071 140.7298 15.46995628448071 GRIFEX 1 40379U 15003D 23061.32867180 .00033618 00000-0 93288-3 0 9993 2 40379 99.0812 333.1422 0094220 277.8785 81.1765 15.32420476446975 XW-2A 1 40903U 15049E 23061.83892118 .00154367 00000-0 87358-3 0 9997 2 40903 97.1351 128.1746 0006042 221.1252 230.2609 15.78636258419580 XW-2C 1 40906U 15049H 23061.80874979 .00014977 00000-0 63381-3 0 9994 2 40906 97.4984 68.8040 0013131 166.3052 271.1502 15.23211226412189 XW-2D 1 40907U 15049J 23061.75228866 .00017726 00000-0 72082-3 0 9990 2 40907 97.4961 69.0369 0012574 160.1019 310.0356 15.24526350412242 LILACSAT-2 1 40908U 15049K 23061.12334765 .00008764 00000-0 43246-3 0 9990 2 40908 97.5247 64.5978 0013937 194.7049 230.4490 15.18058811411548 XW-2E 1 40909U 15049L 23061.16760338 .00034378 00000-0 11347-2 0 9990 2 40909 97.4622 73.8408 0012309 135.3390 289.9210 15.31262880412726 XW-2F 1 40910U 15049M 23061.79568403 .00029893 00000-0 10043-2 0 9998 2 40910 97.4713 73.6788 0012981 135.4466 37.7067 15.30709413412578 XW-2B 1 40911U 15049N 23061.86713174 .00016745 00000-0 68466-3 0 9999 2 40911 97.4934 69.6497 0012318 160.9114 317.7066 15.24357224412148 DCBB 1 40912U 15049P 23061.11992444 .00041400 00000-0 12110-2 0 9997 2 40912 97.4294 77.4050 0013266 104.8913 326.1594 15.35058495413137 IO-86 1 40931U 15052B 23060.53560777 .00002359 00000-0 23701-3 0 9996 2 40931 5.9901 134.8455 0012842 210.6441 149.3962 14.77060803401418 ATHENOXAT-1 1 41168U 15077C 23061.08521101 .00089160 00000-0 24571-2 0 9995 2 41168 14.9934 327.1516 0008760 285.6345 209.1575 15.35261231399718 ChubuSat-2 1 41338U 16012B 23060.65987526 .00005801 00000-0 41526-3 0 9993 2 41338 31.0020 184.7627 0012605 185.9094 174.1394 15.02893476386182 ChubuSat-3 1 41339U 16012C 23061.73194168 .00005817 00000-0 41675-3 0 9998 2 41339 31.0083 174.8860 0012803 205.7191 273.6509 15.02861416386340 Horyu-4 1 41340U 16012D 23060.56333892 .00009381 00000-0 62219-3 0 9996 2 41340 31.0034 154.6631 0011804 240.8767 119.0688 15.05936118386479 e-st@r-II 1 41459U 16025D 23061.06128444 .00041028 00000-0 14104-2 0 9995 2 41459 98.1933 252.0114 0121909 110.5589 250.8584 15.23073430376550 AAUSAT4 1 41460U 16025E 23061.82906038 .00067895 00000-0 16410-2 0 9996 2 41460 98.1771 262.3658 0088663 71.3263 301.0031 15.36856437377334 LO-87 1 41557U 16033B 23061.14734751 .00056730 00000-0 11442-2 0 9994 2 41557 97.3836 165.8907 0009695 175.1515 269.6821 15.46301961377018 NuSat2 1 41558U 16033C 23061.78556802 .00057618 00000-0 10853-2 0 9995 2 41558 97.4106 173.7854 0008531 163.9854 347.2909 15.48292547377424 Lapan A3 1 41603U 16040E 23061.84566149 .00003416 00000-0 15357-3 0 9998 2 41603 97.1801 92.3009 0012125 339.2023 141.0976 15.21708596371315 Pratham 1 41783U 16059A 23061.80095679 .00001276 00000-0 25170-3 0 9994 2 41783 97.8831 97.5914 0034558 78.0004 282.5069 14.63705580343416 TY-1 1 41844U 16066D 23061.14820424 .00054544 00000-0 12908-2 0 9991 2 41844 97.3791 78.3442 0013191 88.2809 344.2289 15.41523826351128 CAS-2T 1 41847U 16066G 23060.78157593 .00002830 00000-0 42839-3 0 9991 2 41847 98.5169 129.8212 0361934 159.4267 202.1933 14.39255924331358 EO-88 1 42017U 17008BX 23061.16098344 .00069049 00000-0 11851-2 0 9993 2 42017 97.2307 130.1103 0002534 54.5671 305.5818 15.50934025336742 CAS-4B 1 42759U 17034B 23061.82819230 .00013823 00000-0 73627-3 0 9992 2 42759 43.0177 346.0048 0009472 138.2827 321.7629 15.15043190315490 CAS-4A 1 42761U 17034D 23061.83564851 .00011600 00000-0 61841-3 0 9998 2 42761 43.0184 344.5411 0009984 140.7458 253.5696 15.15131394315506 NIUSat 1 42766U 17036B 23060.54111590 .00023624 00000-0 73666-3 0 9997 2 42766 97.1736 94.6478 0013387 126.2522 233.9961 15.33144839316082 Aalto 1 1 42775U 17036L 23061.57642104 .00019967 00000-0 66641-3 0 9991 2 42775 97.1683 94.9319 0012765 124.2866 235.9586 15.31004717316182 URSA MAIOR 1 42776U 17036M 23061.09615371 .00020634 00000-0 66327-3 0 9999 2 42776 97.1696 95.5417 0012298 123.4430 236.7990 15.32214314316165 Max Valier Sat 1 42778U 17036P 23061.60929878 .00019916 00000-0 61480-3 0 9994 2 42778 97.1741 99.2568 0010965 122.9508 237.2791 15.33530092316367 Pegasus 1 42784U 17036V 23061.07378130 .00033259 00000-0 88552-3 0 9996 2 42784 97.1663 100.3823 0009944 119.9936 240.2297 15.38076536316460 NUDATSat 1 42787U 17036Y 23061.58803364 .00120282 00000-0 18399-2 0 9991 2 42787 97.1635 108.1135 0005434 103.0996 257.0792 15.53945495316837 SUCHAI 1 1 42788U 17036Z 23061.07009356 .00046432 00000-0 10592-2 0 9996 2 42788 97.1649 103.0427 0008860 114.3920 245.8253 15.42717204316705 SKCUBE 1 42789U 17036AA 23060.56072965 .00038577 00000-0 95212-3 0 9990 2 42789 97.1656 101.5370 0009221 117.4444 242.7741 15.40377833316482 VZLUSAT 1 1 42790U 17036AB 23060.87503207 .00087784 00000-0 13947-2 0 9992 2 42790 97.1634 107.2567 0006566 107.5268 252.6703 15.53006855316861 VENTA 1 1 42791U 17036AC 23060.84564076 .00034225 00000-0 90735-3 0 9994 2 42791 97.1668 101.2988 0009311 117.9289 242.2900 15.38209047316482 Robusta 1B 1 42792U 17036AD 23061.67142513 .00048909 00000-0 11387-2 0 9994 2 42792 97.1644 103.5049 0008535 113.8032 246.4111 15.42095697316724 D-SAT 1 42794U 17036AF 23060.98873073 .00007048 00000-0 57468-3 0 9991 2 42794 97.4611 58.1485 0117479 302.5880 56.4041 14.94452887309949 TechnoSat 1 42829U 17042E 23061.64843367 .00004246 00000-0 41403-3 0 9993 2 42829 97.3973 265.4508 0012582 218.4300 141.6026 14.92886392306596 AO-91 1 43017U 17073E 23061.13777738 .00008339 00000-0 59644-3 0 9992 2 43017 97.6467 309.7346 0241079 62.4489 300.0995 14.84143470285292 PICSAT 1 43132U 18004X 23061.12886287 .00045928 00000-0 10239-2 0 9995 2 43132 97.3426 142.3456 0006855 155.2382 204.9196 15.43423657285951 AO-92 1 43137U 18004AC 23061.14238666 .00031488 00000-0 84403-3 0 9995 2 43137 97.3401 139.7487 0007189 162.9777 197.1711 15.37905783285805 TianYi 2 1 43155U 18008A 23061.13986005 .00023757 00000-0 10724-2 0 9999 2 43155 97.3149 116.4726 0013344 330.0632 114.3094 15.20902592282359 Zhou Enlai 1 43156U 18008B 23061.17519024 .00026921 00000-0 12120-2 0 9995 2 43156 97.3206 116.4983 0010495 330.0274 116.8694 15.20999594282288 TianYi 6 1 43158U 18008D 23061.12001648 .00018435 00000-0 88117-3 0 9991 2 43158 97.3167 113.8009 0010716 333.6612 79.8743 15.19009754282143 S-Net D 1 43186U 18014G 23060.98520559 .00004239 00000-0 35059-3 0 9993 2 43186 97.6427 326.7516 0010150 150.3332 209.8469 14.99402324277487 S-Net B 1 43187U 18014H 23061.71989124 .00004599 00000-0 37993-3 0 9991 2 43187 97.6421 327.4103 0010286 148.2429 211.9416 14.99404893277596 S-Net A 1 43188U 18014J 23060.78587291 .00004470 00000-0 36953-3 0 9990 2 43188 97.6427 326.5735 0010182 151.3586 208.8198 14.99396546277450 S-Net C 1 43189U 18014K 23060.58707816 .00004577 00000-0 37830-3 0 9999 2 43189 97.6418 326.2831 0010323 152.2362 207.9414 14.99386514275974 FMN 1 1 43192U 18015A 23061.82932950 .00566549 00000-0 23372-2 0 9998 2 43192 97.5417 224.1579 0009121 238.8970 229.1267 15.84459297283471 Shaonian Xing 1 43199U 18015H 23061.88263243 .00080398 00000-0 13885-2 0 9994 2 43199 97.5364 214.5559 0010595 204.2372 309.8669 15.50655470283218 CubeBel-1 1 43666U 18083E 23061.81068058 .00029248 00000-0 97568-3 0 9996 2 43666 97.3960 93.2486 0012719 136.7026 309.1871 15.30947834240883 Changshagaoxin 1 43669U 18083H 23061.84145613 .00026080 00000-0 93969-3 0 9997 2 43669 97.3948 88.4032 0010155 133.8573 330.7876 15.28488803240666 Ten-Koh 1 43677U 18084G 23061.09491685 .00003589 00000-0 35707-3 0 9992 2 43677 97.9932 199.1922 0016002 139.9029 220.3374 14.92216500236083 PO-101 1 43678U 18084H 23061.10529019 .00002296 00000-0 22698-3 0 9997 2 43678 98.0014 203.0682 0010113 150.2286 209.9453 14.92900698236284 QO-100 1 43700U 18090A 23061.76163565 .00000138 00000-0 00000 0 0 9994 2 43700 0.0141 131.9844 0001313 190.0357 138.2110 1.00272652 15866 Reaktor Hello World 1 43743U 18096AA 23061.16615592 .00043410 00000-0 90491-3 0 9990 2 43743 97.3278 146.1702 0012323 208.6952 151.3620 15.45368179237574 MinXSS-2 1 43758U 18099A 23061.17906603 .00007516 00000-0 61208-3 0 9997 2 43758 97.5894 127.7392 0015779 122.8295 237.4450 14.99693783231695 AO-95 1 43770U 18099N 23061.10324284 .00006244 00000-0 52715-3 0 9993 2 43770 97.5860 125.5510 0014379 130.4572 229.7907 14.98384592231569 RANGE-B 1 43772U 18099Q 23061.15056921 .00007569 00000-0 61696-3 0 9999 2 43772 97.6024 128.0009 0013430 110.9836 249.2826 14.99684703231619 RANGE-A 1 43773U 18099R 23061.12925585 .00005224 00000-0 45252-3 0 9994 2 43773 97.5803 123.9640 0014542 115.6827 244.5899 14.97459147231535 MOVE-II 1 43780U 18099Y 23061.62073806 .00010814 00000-0 84779-3 0 9995 2 43780 97.5870 128.0346 0012854 144.3673 215.8412 15.01079812231735 SNUSat 2 1 43782U 18099AA 23061.13095266 .00006571 00000-0 55410-3 0 9992 2 43782 97.5887 126.0940 0013829 113.2844 246.9836 14.98414571231590 SnugLite 1 43784U 18099AC 23061.11896649 .00007024 00000-0 58530-3 0 9996 2 43784 97.5830 125.7085 0015972 121.8135 238.4646 14.98830348231628 ITASat 1 1 43786U 18099AE 23061.15517737 .00004696 00000-0 39879-3 0 9997 2 43786 97.5904 126.6320 0015021 120.8943 239.3759 14.98274099231614 EAGLET 1 1 43790U 18099AJ 23060.90745296 .00004395 00000-0 37523-3 0 9997 2 43790 97.5885 126.9180 0013650 126.5858 233.6623 14.98112101231317 ESEO 1 43792U 18099AL 23061.64187978 .00002878 00000-0 25434-3 0 9990 2 43792 97.5834 126.3889 0014127 121.5703 238.6901 14.97033677231444 CSIM 1 43793U 18099AM 23061.15017946 .00009996 00000-0 77235-3 0 9998 2 43793 97.5860 128.7501 0018113 127.0229 233.2656 15.01591204231500 Astrocast 0.1 1 43798U 18099AS 23061.12666848 .00009856 00000-0 78638-3 0 9994 2 43798 97.5908 128.1706 0015150 98.0141 262.2803 15.00406325231703 JO-97 1 43803U 18099AX 23060.85858952 .00007666 00000-0 63167-3 0 9997 2 43803 97.5864 126.2284 0016335 119.9446 240.3402 14.99227847231606 Suomi 100 1 43804U 18099AY 23061.63534340 .00006753 00000-0 56066-3 0 9993 2 43804 97.5843 126.8395 0014535 121.4717 238.7929 14.99002550231722 Al Farabi 2 1 43805U 18099AZ 23061.61697717 .00012148 00000-0 97233-3 0 9996 2 43805 97.5920 127.7109 0012050 112.9483 247.3022 15.00261024231767 CHOMPTT 1 43855U 18104G 23061.77015050 .00026129 00000-0 78312-3 0 9990 2 43855 85.0293 238.2196 0013798 3.0556 357.0774 15.34265694234223 ISAT 1 43879U 18111D 23061.27645803 .00008259 00000-0 65869-3 0 9991 2 43879 97.6494 327.2994 0013158 145.1703 215.0385 15.00500308226272 UWE-4 1 43880U 18111E 23060.99503388 .00006940 00000-0 55424-3 0 9993 2 43880 97.6497 327.8846 0015053 169.2701 190.8846 15.00484118226283 Sparrow 1 43881U 18111F 23060.97450732 .00007198 00000-0 56949-3 0 9995 2 43881 97.6579 328.2537 0012790 185.4735 174.6351 15.00859326226298 Lume 1 1 43908U 18111AJ 23060.93853044 .00028379 00000-0 73870-3 0 9990 2 43908 97.1585 306.2227 0013030 224.5046 135.5154 15.38769522232855 FO-99 1 43937U 19003F 23060.80570134 .00040222 00000-0 96115-3 0 9993 2 43937 97.1043 90.1263 0013957 312.3217 47.6847 15.41291176229441 AstroCast 0.2 1 44083U 19018F 23061.62164110 .00048729 00000-0 13357-2 0 9992 2 44083 97.2854 121.3825 0006620 276.1427 83.9063 15.37119003217976 AISTechSat 3 1 44103U 19018AB 23061.48354243 .00028801 00000-0 85482-3 0 9995 2 44103 97.2714 121.0582 0008704 297.1630 187.1221 15.34726277218108 AISat 1 1 44104U 19018AC 23061.82076249 .00021060 00000-0 48376-3 0 9992 2 44104 97.3761 151.6093 0044239 284.3414 75.2924 15.41662676219309 Prox-1 1 44339U 19036A 23061.16824100 .00008241 00000-0 17263-2 0 9992 2 44339 24.0030 4.0801 0010153 167.7064 192.3677 14.57606967196044 Move-IIb 1 44398U 19038N 23061.66097826 .00047103 00000-0 16445-2 0 9992 2 44398 97.6566 40.3201 0014268 320.8494 39.1712 15.29342013202322 SONATE 1 44400U 19038Q 23060.86402189 .00013576 00000-0 65843-3 0 9993 2 44400 97.6742 36.5765 0020559 330.9043 29.1043 15.18445166201939 BeeSat 9 1 44412U 19038AC 23061.15066083 .00027057 00000-0 11183-2 0 9994 2 44412 97.6665 38.7849 0015602 331.3326 28.7051 15.23851207201820 JAISAT-1 1 44419U 19038F 23060.99366713 .00025243 00000-0 10321-2 0 9993 2 44419 97.6662 39.6500 0014469 328.8962 31.1417 15.24246674202175 Taurus 1 1 44530U 19059C 23061.70510864 .00006384 00000-0 16995-2 0 9996 2 44530 98.5461 168.0146 0012696 63.0332 297.2137 14.48804943183219 Duchifat 3 1 44854U 19089C 23061.16942185 .00013311 00000-0 94754-3 0 9991 2 44854 36.9682 9.9203 0007458 179.2193 302.4520 15.04028939176708 OPS-SAT 1 44878U 19092F 23061.04266141 .00027464 00000-0 10138-2 0 9996 2 44878 97.4783 248.8671 0010260 159.5363 200.6289 15.27681826177398 TO-108 1 44881U 19093C 23061.17476422 .00002451 00000-0 31336-3 0 9993 2 44881 97.8678 141.4411 0015905 70.4661 289.8294 14.82201571172948 FloripaSat 1 1 44885U 19093G 23061.84219116 .00005538 00000-0 65915-3 0 9995 2 44885 97.8742 144.2450 0014735 72.5399 287.7415 14.84684124173167 RS-44 1 44909U 19096E 23061.73958030 .00000042 00000-0 11415-3 0 9999 2 44909 82.5183 58.6701 0218622 75.9269 286.6025 12.79718662148596 BY70-2 1 45857U 20042B 23061.17279853 .00026092 00000-0 30210-2 0 9998 2 45857 97.9321 141.0559 0008055 356.4559 3.6477 14.85441401143627 UPMSat 2 1 46276U 20061E 23060.42749130 .00011264 00000-0 50801-3 0 9996 2 46276 97.3599 130.3517 0001562 46.6697 313.4669 15.21178437137890 AmicalSat 1 46287U 20061R 23060.14590857 .00014801 00000-0 75644-3 0 9999 2 46287 97.4139 128.8579 0003423 109.6636 250.4967 15.16762189137319 SALSAT 1 46495U 20068K 23060.43319736 .00006594 00000-0 45085-3 0 9990 2 46495 97.7586 7.4743 0017846 121.6504 238.6466 15.06348862132848 BY70-3 1 46839U 20079N 23061.70064119 .00232665 00000-0 17894-2 0 9993 2 46839 97.1618 138.2175 0002526 178.7330 332.1837 15.71322268130261 CAPE 3 1 47309U 21002A 23061.52649164 .00030119 00000-0 91642-3 0 9996 2 47309 60.6799 109.1815 0034883 120.7177 239.7359 15.33292878117889 AO-109 1 47311U 21002C 23061.10077360 .00021415 00000-0 67175-3 0 9999 2 47311 60.6824 108.3819 0032960 117.4628 242.9822 15.32561331117843 MiTEE 1 1 47314U 21002F 23061.73748126 .00091818 00000-0 16132-2 0 9996 2 47314 60.6749 86.4973 0027958 102.2266 258.1967 15.49492168118287 ExoCube 2 1 47319U 21002L 23061.63971015 .00023985 00000-0 76425-3 0 9997 2 47319 60.6808 108.0823 0033390 119.6569 240.7854 15.31988377117855 UVSQ-SAT 1 47438U 21006AB 23061.63506928 .00017318 00000-0 79292-3 0 9998 2 47438 97.4015 120.4688 0011909 98.0135 262.2452 15.20498698116439 YUSAT 1 1 47439U 21006AC 23061.14303249 .00019270 00000-0 84615-3 0 9990 2 47439 97.4020 120.4111 0011399 98.9428 261.3099 15.21916477116386 SOMP 2b 1 47445U 21006AJ 23061.37912913 .00015860 00000-0 73941-3 0 9997 2 47445 97.3983 119.6207 0011683 102.8783 257.3758 15.19897262116374 IDEASSat 1 47458U 21006AX 23061.39297479 .00014413 00000-0 67888-3 0 9992 2 47458 97.4074 120.3588 0011035 101.5699 258.6775 15.19571712116365 CubeSX-Sirius-HSE 1 47951U 21022V 23061.11053625 .00015198 00000-0 91265-3 0 9998 2 47951 97.5090 320.3224 0019444 350.5853 149.5758 15.10839751106843 CubeSX-HSE 1 47952U 21022W 23061.80436263 .00013751 00000-0 82463-3 0 9991 2 47952 97.5088 321.0389 0019338 346.2351 86.6658 15.10914371106952 KSU-Cubesat 1 47954U 21022Y 23061.62922905 .00013169 00000-0 77805-3 0 9993 2 47954 97.5097 321.1198 0018873 347.4572 12.6186 15.11471853106661 GRBAlpha 1 47959U 21022AD 23061.79572543 .00013251 00000-0 79370-3 0 9996 2 47959 97.5094 321.0975 0018906 347.1242 84.1069 15.10972509105771 Orbicraft-Zorkiy 1 47960U 21022AE 23061.85875021 .00014083 00000-0 83287-3 0 9998 2 47960 97.5123 321.4580 0018903 346.0118 78.1475 15.11418577106483 STECCO 1 47962U 21022AG 23061.75719253 .00022691 00000-0 12008-2 0 9999 2 47962 97.5072 322.9646 0013473 341.0012 103.7228 15.15369787105899 DO-111 1 47963U 21022AH 23061.69196236 .00084962 00000-0 28413-2 0 9999 2 47963 97.5116 326.8787 0009767 339.1614 20.9227 15.30607856106153 MO-110 1 47964U 21022AJ 23061.64315111 .00023036 00000-0 11978-2 0 9993 2 47964 97.5105 323.3169 0015615 336.8009 23.2517 15.15961674105903 FEES 1 48082U 21022AL 23060.28628526 .00038428 00000-0 18284-2 0 9999 2 48082 97.5099 322.4427 0011799 341.5822 18.4983 15.19000683105438 CSS 1 48274U 21035A 23061.56837954 .00020874 00000-0 23893-3 0 9994 2 48274 41.4749 86.1917 0003843 345.6548 156.4069 15.61624209105150 TUBIN 1 48900U 21059X 23061.82012968 .00010665 00000-0 54181-3 0 9996 2 48900 97.5802 195.0261 0008771 290.4100 225.4720 15.17033962 93031 IT-SPINS 1 49017U 21013G 23060.87443336 .00029379 00000-0 86716-3 0 9998 2 49017 51.5936 242.0596 0007959 278.5064 81.5016 15.34703637 93183 LEDSAT 1 49069U 21073D 23061.12193783 .00009892 00000-0 57797-3 0 9993 2 49069 97.4946 133.9231 0026503 128.9454 231.4144 15.11795089 84715 CUTE 1 49263U 21088D 23060.16138156 .00009655 00000-0 66199-3 0 9994 2 49263 97.5570 127.9443 0017461 270.6224 89.3002 15.06110455 78017 TeikyoSat 4 1 49396U 21102B 23060.87266310 .00002651 00000-0 20798-3 0 9994 2 49396 97.5342 116.1366 0016809 100.6373 259.6746 15.01667978 71660 Z-Sat 1 49399U 21102E 23061.13332634 .00004014 00000-0 29391-3 0 9993 2 49399 97.5016 117.4969 0024270 75.9139 284.4782 15.03887494 71798 KOSEN 1 1 49402U 21102H 23061.58874097 .00005216 00000-0 36640-3 0 9991 2 49402 97.4932 118.2863 0022575 64.3432 296.0123 15.05340409 71919 HO-113 1 50466U 21131B 23061.14651119 .00000889 00000-0 30412-3 0 9997 2 50466 98.5576 143.0226 0005659 103.4522 256.7296 14.38707382 61965 Tevel-3 1 50988U 22002E 23061.15249664 .00025163 00000-0 11624-2 0 9998 2 50988 97.4480 129.1404 0008120 242.7610 174.3949 15.20150904 62471 Tevel-8 1 50989U 22002F 23061.77428477 .00021517 00000-0 99608-3 0 9996 2 50989 97.4493 129.8015 0008025 238.7958 260.0841 15.20110398 62562 Tevel-5 1 50998U 22002Q 23061.14920073 .00026135 00000-0 11844-2 0 9992 2 50998 97.4462 129.4097 0009506 238.4591 180.4491 15.20789770 62493 Tevel-6 1 50999U 22002R 23061.14783517 .00026308 00000-0 11920-2 0 9990 2 50999 97.4456 129.4057 0009434 239.6079 178.8518 15.20796340 62499 Tevel-1 1 51013U 22002AF 23061.15858021 .00024692 00000-0 11419-2 0 9999 2 51013 97.4464 129.1054 0007873 242.5427 169.7156 15.20117676 62479 Grizu-263a 1 51025U 22002AT 23061.15070522 .00048762 00000-0 17111-2 0 9993 2 51025 97.4637 132.1458 0010349 238.5635 121.4593 15.29212808 62612 NO-116 1 51031U 22002AZ 23061.16319094 .00030397 00000-0 12416-2 0 9999 2 51031 97.4600 130.9702 0010868 242.0337 117.9800 15.24280683 62557 IRIS-A 1 51044U 22002BN 23060.90846385 .00010506 00000-0 53744-3 0 9992 2 51044 97.4491 128.1214 0007487 248.4651 111.5785 15.16798609 62384 Tevel-7 1 51062U 22002CG 23061.16336295 .00024378 00000-0 11281-2 0 9996 2 51062 97.4473 129.1746 0007849 239.9318 147.6027 15.20097742 62476 Tevel-4 1 51063U 22002CH 23061.16635943 .00024948 00000-0 11554-2 0 9995 2 51063 97.4486 129.1687 0007750 241.7762 145.2540 15.20067672 62473 Tevel-2 1 51069U 22002CP 23061.15347668 .00025159 00000-0 11622-2 0 9995 2 51069 97.4473 129.1184 0008144 240.4179 171.7915 15.20150738 62479 DELFI-PQ 1 51074U 22002CU 23061.11384946 .00034609 00000-0 13186-2 0 9994 2 51074 97.4730 132.6488 0010795 270.4995 89.5007 15.26580418 62613 SO-115 1 51080U 22002DA 23060.98579579 .00021652 00000-0 92053-3 0 9998 2 51080 97.4748 131.8216 0010892 275.0870 84.9123 15.22997973 62544 SO-114 1 51081U 22002DB 23060.12871485 .00023292 00000-0 98849-3 0 9997 2 51081 97.4737 130.9316 0011215 278.2000 81.7964 15.23040289 62418 OreSat0 1 52017U 22026K 23060.74203402 .00019343 00000-0 88269-3 0 9996 2 52017 97.5117 63.1340 0027294 99.5830 260.8491 15.20316397 53197 Planetum 1 1 52738U 22057G 23061.80371379 .00017396 00000-0 89312-3 0 9993 2 52738 97.5252 178.1585 0007181 1.3908 358.7343 15.16553123 42517 Foresail-1 1 52766U 22057AL 23061.84247822 .00012400 00000-0 63364-3 0 9993 2 52766 97.5357 178.9939 0012006 342.5223 135.1173 15.16757409 42541 SNUGLITE 2 1 52899U 22065F 23060.90007458 .00002187 00000-0 47633-3 0 9996 2 52899 98.0495 208.8558 0008078 184.7171 175.3954 14.58883697 35212 CTIM 1 52950U 22074G 23061.17509214 .00039419 00000-0 12150-2 0 9994 2 52950 45.0011 233.1089 0011249 264.7963 95.1792 15.32961364 37120 IO-117 1 53106U 22080B 23059.10218779 -.00000003 00000-0 00000-0 0 9995 2 53106 70.1827 357.6158 0008468 211.9521 148.0626 6.42557162 14745 SelfieSat 1 53951U 22057BA 23061.79066448 .00020280 00000-0 10188-2 0 9997 2 53951 97.5310 178.5124 0009272 352.6660 7.4436 15.17269530 42522 FO-118 1 54684U 22167C 23061.13916456 .00017256 00000-0 10400-2 0 9990 2 54684 97.5449 199.7948 0013839 344.9459 188.6666 15.10759176 12495 HO-119 1 54816U 21035C 23060.77435667 .00521391 11120-3 15559-2 0 9997 2 54816 41.4759 83.7090 0017395 95.9869 264.2413 15.91262971 11472 /EX